• In Czech Republic
  • List of Countries
  • For 7 days
  • Water Temperature
  • Satellite Maps
  • Weather Map
  • Weather Widgets
  • user-avatar
    Login

    Hourly Weather Mielnow

    Today, 20 September, Thursday

    Time Temperature Precipitation Wind Pressure Humidity
    00:00 +17°C° 0 mm 2 mps 747 mmHg 77%
    01:00 +16°C° 0 mm 2 mps 747 mmHg 78%
    02:00 +16°C° 0 mm 1 mps 747 mmHg 82%
    03:00 +16°C° 0 mm 1 mps 747 mmHg 83%
    04:00 +15°C° 0 mm 1 mps 747 mmHg 84%
    05:00 +15°C° 0 mm 1 mps 747 mmHg 85%
    06:00 +16°C° 0 mm 1 mps 747 mmHg 82%
    07:00 +18°C° 0 mm 1 mps 747 mmHg 79%
    08:00 +19°C° 0 mm 1 mps 747 mmHg 73%
    09:00 +21°C° 0 mm 1 mps 747 mmHg 66%
    10:00 +23°C° 0 mm 1 mps 747 mmHg 59%
    11:00 +25°C° 0 mm 1 mps 747 mmHg 52%
    12:00 +26°C° 0 mm 1 mps 747 mmHg 49%
    13:00 +27°C° 0 mm 1 mps 747 mmHg 46%
    14:00 +27°C° 0 mm 1 mps 747 mmHg 44%
    15:00 +27°C° 0 mm 1 mps 747 mmHg 47%
    16:00 +27°C° 0 mm 1 mps 746 mmHg 50%
    17:00 +24°C° 0 mm 0 mps 746 mmHg 54%
    18:00 +24°C° 0 mm 1 mps 746 mmHg 58%
    19:00 +22°C° 0 mm 1 mps 746 mmHg 63%
    20:00 +20°C° 0 mm 1 mps 746 mmHg 67%
    21:00 +19°C° 0 mm 1 mps 746 mmHg 69%
    22:00 +19°C° 0 mm 1 mps 746 mmHg 71%
    23:00 +17°C° 0 mm 2 mps 746 mmHg 73%

    Tomorrow, 21 September, Friday

    Time Temperature Precipitation Wind Pressure Humidity
    00:00 +18°C° 0 mm 1 mps 746 mmHg 75%
    01:00 +18°C° 0 mm 1 mps 745 mmHg 76%
    02:00 +16°C° 0 mm 1 mps 745 mmHg 77%
    03:00 +16°C° 0 mm 1 mps 745 mmHg 78%
    04:00 +16°C° 0 mm 1 mps 745 mmHg 79%
    05:00 +16°C° 0 mm 1 mps 745 mmHg 80%
    06:00 +18°C° 0 mm 1 mps 745 mmHg 78%
    07:00 +17°C° 0 mm 2 mps 745 mmHg 77%
    08:00 +18°C° 0 mm 2 mps 745 mmHg 75%
    09:00 +20°C° 0 mm 2 mps 745 mmHg 68%
    10:00 +23°C° 0 mm 2 mps 745 mmHg 61%
    11:00 +26°C° 0 mm 3 mps 744 mmHg 54%
    12:00 +26°C° 0 mm 3 mps 744 mmHg 51%
    13:00 +27°C° 0 mm 3 mps 744 mmHg 48%
    14:00 +28°C° 0 mm 3 mps 743 mmHg 45%
    15:00 +27°C° 0 mm 3 mps 743 mmHg 49%
    16:00 +26°C° 0 mm 3 mps 742 mmHg 53%
    17:00 +26°C° 0 mm 3 mps 742 mmHg 56%
    18:00 +24°C° 0 mm 3 mps 742 mmHg 60%
    19:00 +21°C° 0 mm 3 mps 742 mmHg 64%
    20:00 +19°C° 0 mm 3 mps 742 mmHg 67%
    21:00 +19°C° 0 mm 3 mps 742 mmHg 67%
    22:00 +19°C° 0 mm 3 mps 742 mmHg 66%
    23:00 +19°C° 0 mm 3 mps 742 mmHg 65%

    Day after tomorrow, 22 September, Saturday

    Time Temperature Precipitation Wind Pressure Humidity
    00:00 +19°C° 0 mm 4 mps 742 mmHg 62%
    01:00 +19°C° 0 mm 4 mps 741 mmHg 60%
    02:00 +19°C° 0 mm 4 mps 741 mmHg 57%
    03:00 +19°C° 0 mm 4 mps 742 mmHg 55%
    04:00 +19°C° 0 mm 5 mps 742 mmHg 54%
    05:00 +20°C° 0 mm 5 mps 742 mmHg 52%
    06:00 +18°C° 0.3 mm 4 mps 743 mmHg 63%
    07:00 +17°C° 0.3 mm 4 mps 744 mmHg 73%
    08:00 +14°C° 0.3 mm 4 mps 744 mmHg 84%
    09:00 +13°C° 0.5 mm 3 mps 745 mmHg 85%
    10:00 +13°C° 0.5 mm 3 mps 745 mmHg 87%
    11:00 +12°C° 0.5 mm 3 mps 746 mmHg 88%
    12:00 +13°C° 1.5 mm 2 mps 746 mmHg 88%
    13:00 +12°C° 1.5 mm 2 mps 746 mmHg 89%
    14:00 +12°C° 1.5 mm 2 mps 746 mmHg 89%
    15:00 +12°C° 0.5 mm 2 mps 746 mmHg 88%
    16:00 +12°C° 0.5 mm 1 mps 746 mmHg 87%
    17:00 +12°C° 0.5 mm 1 mps 745 mmHg 86%
    18:00 +10°C° 0 mm 2 mps 746 mmHg 88%
    19:00 +10°C° 0 mm 2 mps 746 mmHg 90%
    20:00 +9°C° 0 mm 2 mps 746 mmHg 92%
    21:00 +9°C° 0 mm 2 mps 746 mmHg 90%
    22:00 +9°C° 0 mm 2 mps 746 mmHg 88%
    23:00 +9°C° 0 mm 3 mps 746 mmHg 86%

    23 September, Sunday

    Time Temperature Precipitation Wind Pressure Humidity
    00:00 +9°C° 0 mm 3 mps 746 mmHg 86%
    01:00 +9°C° 0 mm 3 mps 746 mmHg 86%
    02:00 +9°C° 0 mm 3 mps 746 mmHg 86%
    03:00 +8°C° 0 mm 3 mps 746 mmHg 86%
    04:00 +8°C° 0 mm 3 mps 747 mmHg 86%
    05:00 +8°C° 0 mm 3 mps 747 mmHg 86%
    06:00 +9°C° 0 mm 3 mps 747 mmHg 84%
    07:00 +9°C° 0 mm 3 mps 747 mmHg 82%
    08:00 +10°C° 0 mm 3 mps 747 mmHg 80%
    09:00 +12°C° 0 mm 3 mps 747 mmHg 73%
    10:00 +14°C° 0 mm 4 mps 747 mmHg 65%
    11:00 +15°C° 0 mm 4 mps 747 mmHg 57%
    12:00 +17°C° 0 mm 4 mps 746 mmHg 56%
    13:00 +17°C° 0 mm 4 mps 746 mmHg 55%
    14:00 +17°C° 0 mm 5 mps 746 mmHg 54%
    15:00 +17°C° 0 mm 4 mps 745 mmHg 58%
    16:00 +15°C° 0 mm 4 mps 745 mmHg 62%
    17:00 +16°C° 0 mm 3 mps 744 mmHg 66%
    18:00 +14°C° 0 mm 3 mps 744 mmHg 67%
    19:00 +14°C° 0 mm 3 mps 744 mmHg 68%
    20:00 +13°C° 0 mm 3 mps 744 mmHg 70%
    21:00 +13°C° 0 mm 3 mps 743 mmHg 70%
    22:00 +13°C° 0 mm 4 mps 742 mmHg 71%
    23:00 +13°C° 0 mm 5 mps 742 mmHg 72%

    24 September, Monday

    Time Temperature Precipitation Wind Pressure Humidity
    00:00 +13°C° 0 mm 6 mps 740 mmHg 69%
    01:00 +14°C° 0 mm 7 mps 739 mmHg 66%
    02:00 +13°C° 0 mm 8 mps 738 mmHg 64%
    03:00 +13°C° 1.1 mm 8 mps 737 mmHg 65%
    04:00 +13°C° 1.1 mm 9 mps 735 mmHg 67%
    05:00 +13°C° 1.1 mm 10 mps 734 mmHg 68%
    06:00 +13°C° 1.8 mm 11 mps 733 mmHg 73%
    07:00 +13°C° 1.8 mm 11 mps 732 mmHg 77%
    08:00 +13°C° 1.8 mm 12 mps 731 mmHg 81%
    09:00 +13°C° 1.2 mm 12 mps 731 mmHg 81%
    10:00 +13°C° 1.2 mm 12 mps 732 mmHg 80%
    11:00 +13°C° 1.2 mm 12 mps 732 mmHg 80%
    12:00 +12°C° 0.1 mm 12 mps 734 mmHg 76%
    13:00 +11°C° 0.1 mm 11 mps 736 mmHg 73%
    14:00 +9°C° 0.1 mm 11 mps 738 mmHg 70%
    15:00 +9°C° 0.1 mm 10 mps 739 mmHg 68%
    16:00 +10°C° 0.1 mm 9 mps 740 mmHg 67%
    17:00 +10°C° 0.1 mm 7 mps 742 mmHg 66%
    18:00 +10°C° 0.1 mm 7 mps 742 mmHg 67%
    19:00 +9°C° 0.1 mm 7 mps 743 mmHg 69%
    20:00 +8°C° 0.1 mm 7 mps 744 mmHg 71%
    21:00 +8°C° 0 mm 7 mps 745 mmHg 72%
    22:00 +8°C° 0 mm 6 mps 745 mmHg 73%
    23:00 +7°C° 0 mm 6 mps 746 mmHg 74%

    25 September, Tuesday

    Time Temperature Precipitation Wind Pressure Humidity
    00:00 +7°C° 0 mm 6 mps 746 mmHg 76%
    01:00 +6°C° 0 mm 5 mps 747 mmHg 77%
    02:00 +5°C° 0 mm 5 mps 747 mmHg 79%
    03:00 +5°C° 0 mm 5 mps 748 mmHg 78%
    04:00 +5°C° 0 mm 5 mps 749 mmHg 77%
    05:00 +4°C° 0 mm 4 mps 749 mmHg 76%
    06:00 +5°C° 0 mm 5 mps 750 mmHg 75%
    07:00 +4°C° 0 mm 6 mps 750 mmHg 74%
    08:00 +5°C° 0 mm 6 mps 750 mmHg 73%
    09:00 +6°C° 0 mm 7 mps 751 mmHg 67%
    10:00 +8°C° 0 mm 7 mps 751 mmHg 62%
    11:00 +9°C° 0 mm 7 mps 752 mmHg 56%
    12:00 +10°C° 0.1 mm 7 mps 752 mmHg 58%
    13:00 +10°C° 0.1 mm 7 mps 752 mmHg 59%
    14:00 +10°C° 0.1 mm 7 mps 752 mmHg 60%
    15:00 +10°C° 0.2 mm 6 mps 752 mmHg 62%
    16:00 +9°C° 0.2 mm 6 mps 753 mmHg 64%
    17:00 +9°C° 0.2 mm 5 mps 753 mmHg 66%
    18:00 +8°C° 0 mm 4 mps 753 mmHg 70%
    19:00 +8°C° 0 mm 3 mps 754 mmHg 74%
    20:00 +5°C° 0 mm 3 mps 754 mmHg 78%
    21:00 +5°C° 0 mm 3 mps 754 mmHg 77%
    22:00 +5°C° 0 mm 3 mps 754 mmHg 77%
    23:00 +4°C° 0 mm 3 mps 755 mmHg 77%
    Show more